Weather History for Prescott, AZ

Change the Weather History Date:

Wednesday, December 25, 2013

  Actual Average Record
Temperature  
Mean Temperature 39 °F 37 °F  
Max Temperature 55 °F 50 °F 65 °F (1983)
Min Temperature 23 °F 25 °F 0 °F (1990)
Degree Days  
Heating Degree Days 26    
Month to date heating degree days 680  
Since 1 July heating degree days 1586  
Cooling Degree Days 0    
Month to date cooling degree days 0  
Year to date cooling degree days 1127  
Moisture  
Dew Point 14 °F    
Average Humidity 46    
Maximum Humidity 75    
Minimum Humidity 12    
Precipitation  
Precipitation 0.00 in 0.04 in 0.81 in (1983)
Month to date precipitation 0.31 0.76  
Year to date precipitation 12.94 13.77  
Sea Level Pressure  
Sea Level Pressure 30.30 in    
Wind  
Wind Speed 5 mph (West)    
Max Wind Speed 12 mph    
Max Gust Speed 15 mph    
Visibility 10 miles    
Events      
T = Trace of Precipitation, MM = Missing Value Source: NWS Daily Summary

Daily Weather History Graph

Daily Weather History Graph

Search for Another Location

Airport:

Trip Planner

Search our weather history database for the weather conditions in past years. The results will help you decide how hot, cold, wet, or windy it might be!

Date:

Astronomy

Dec. 25, 2013 Rise Set
Actual Time 7:34 AM MST 5:25 PM MST
Civil Twilight 7:06 AM MST 5:53 PM MST
Nautical Twilight 6:35 AM MST 6:24 PM MST
Astronomical Twilight 6:04 AM MST 6:55 PM MST
Moon 12:19 AM MST (12/25) 12:18 PM MST (12/25)
Length of Visible Light 10h 46m
Length of Day
9h 50m
Waning Gibbous, 48% of the Moon is Illuminated
Dec 25
Waning Gibbous
Jan 1
New
Jan 7
First Quarter
Jan 15
Full
Jan 23
Last Quarter

Hourly Weather History & Observations

Time (MST) Temp. Windchill Dew Point Humidity Pressure Visibility Wind Dir Wind Speed Gust Speed Precip Events Conditions
12:53 AM 33.1 °F 30.0 °F 21.9 °F 64% 30.24 in 10.0 mi West 3.5 mph - N/A   Clear
1:53 AM 30.9 °F 27.5 °F 19.9 °F 64% 30.24 in 10.0 mi West 3.5 mph - N/A   Clear
2:53 AM 27.0 °F 23.0 °F 19.0 °F 72% 30.26 in 10.0 mi SW 3.5 mph - N/A   Clear
3:53 AM 28.0 °F 24.2 °F 19.9 °F 72% 30.26 in 10.0 mi SW 3.5 mph - N/A   Clear
4:53 AM 27.0 °F - 19.0 °F 72% 30.27 in 10.0 mi Calm Calm - N/A   Clear
5:53 AM 24.1 °F 17.0 °F 17.1 °F 75% 30.32 in 10.0 mi SSW 5.8 mph - N/A   Clear
6:53 AM 24.1 °F 17.0 °F 17.1 °F 75% 30.35 in 10.0 mi SSW 5.8 mph - N/A   Clear
7:53 AM 25.0 °F 17.1 °F 17.1 °F 72% 30.38 in 10.0 mi South 6.9 mph - N/A   Clear
8:53 AM 30.0 °F 23.2 °F 19.9 °F 66% 30.36 in 10.0 mi South 6.9 mph - N/A   Clear
9:53 AM 39.9 °F 36.7 °F 18.0 °F 41% 30.35 in 10.0 mi North 4.6 mph - N/A   Clear
10:53 AM 43.0 °F 40.3 °F 14.0 °F 31% 30.36 in 10.0 mi North 4.6 mph - N/A   Clear
11:53 AM 46.9 °F - 12.9 °F 25% 30.32 in 10.0 mi North 6.9 mph - N/A   Clear
12:53 PM 50.0 °F - 12.0 °F 22% 30.27 in 10.0 mi North 11.5 mph - N/A   Clear
1:53 PM 53.1 °F - 10.9 °F 19% 30.24 in 10.0 mi NNW 6.9 mph - N/A   Clear
2:53 PM 54.0 °F - 9.0 °F 17% 30.24 in 10.0 mi NNW 6.9 mph - N/A   Clear
3:53 PM 55.0 °F - 5.0 °F 13% 30.23 in 10.0 mi North 9.2 mph - N/A   Clear
4:53 PM 52.0 °F - 7.0 °F 16% 30.25 in 10.0 mi North 6.9 mph - N/A   Clear
5:53 PM 45.0 °F 43.5 °F 10.0 °F 24% 30.29 in 10.0 mi North 3.5 mph - N/A   Clear
6:53 PM 39.9 °F - 10.9 °F 31% 30.32 in 10.0 mi Calm Calm - N/A   Clear
7:53 PM 33.1 °F - 12.9 °F 43% 30.35 in 10.0 mi Calm Calm - N/A   Clear
8:53 PM 30.9 °F 26.2 °F 12.0 °F 46% 30.35 in 10.0 mi South 4.6 mph - N/A   Clear
9:53 PM 30.0 °F - 12.9 °F 49% 30.32 in 10.0 mi Calm Calm - N/A   Clear
10:53 PM 28.0 °F 24.2 °F 12.0 °F 51% 30.32 in 10.0 mi South 3.5 mph - N/A   Clear
11:53 PM 28.0 °F 21.7 °F 12.0 °F 51% 30.32 in 10.0 mi South 5.8 mph - N/A   Clear